Fort Campbell, KY

8:59 PM CST on November 21, 2017 (GMT -0600)
Campbell Army Air Field

Weather History for KHOP - November, 2013

Change the Weather History Date:

Sunday, November 17, 2013

  Actual Average Record
Temperature  
Mean Temperature 62 °F -  
Max Temperature 70 °F 56 °F 80 °F (2016)
Min Temperature 54 °F 37 °F 17 °F (1997)
Degree Days  
Heating Degree Days 3    
Growing Degree Days 12 (Base 50)    
Moisture  
Dew Point 65 °F    
Average Humidity 98    
Maximum Humidity 100    
Minimum Humidity 44    
Precipitation  
Precipitation 1.70 in - - ()
Sea Level Pressure  
Sea Level Pressure 29.77 in    
Wind  
Wind Speed 14 mph (SSW)    
Max Wind Speed 33 mph    
Max Gust Speed 48 mph    
Visibility 7 miles    
Events Fog , Rain    
Averages and records for this station are not official NWS values.
T = Trace of Precipitation, MM = Missing Value Source: NWS Daily Summary

Daily Weather History Graph

Daily Weather History Graph

Search for Another Location

Airport or City:

Trip Planner

Search our weather history database for the weather conditions in past years. The results will help you decide how hot, cold, wet, or windy it might be!

Date:

Astronomy

Nov. 17, 2013 Rise Set
Actual Time 6:30 AM CST 4:39 PM CST
Civil Twilight 6:02 AM CST 5:07 PM CST
Nautical Twilight 5:31 AM CST 5:38 PM CST
Astronomical Twilight 5:00 AM CST 6:09 PM CST
Moon 4:56 PM CST (11/17) 6:24 AM CST (11/17)
Length of Visible Light 11h 04m
Length of Day
10h 09m
Full, 100% of the Moon is Illuminated
Nov 17
Full
Nov 25
Last Quarter
Dec 2
New
Dec 9
First Quarter
Dec 17
Full

Hourly Weather History & Observations

Time (CST) Temp. Dew Point Humidity Pressure Visibility Wind Dir Wind Speed Gust Speed Precip Events Conditions
12:58 AM 65.5 °F 62.8 °F 91% 29.86 in 10.0 mi South 15.0 mph 25.3 mph N/A   Overcast
1:58 AM 65.8 °F 63.0 °F 90% 29.85 in 10.0 mi South 19.6 mph 31.1 mph N/A   Overcast
2:12 AM 66.2 °F 62.6 °F 88% 29.85 in 10.0 mi South 18.4 mph 26.5 mph N/A   Overcast
2:13 AM 66.2 °F 62.6 °F 88% 29.85 in 10.0 mi South 18.4 mph 26.5 mph N/A   Overcast
2:46 AM 66.2 °F 62.6 °F 88% 29.85 in 10.0 mi South 11.5 mph 21.9 mph N/A   Overcast
2:58 AM 66.4 °F 62.8 °F 88% 29.84 in 10.0 mi South 16.1 mph 28.8 mph N/A   Overcast
3:23 AM 66.2 °F 62.6 °F 88% 29.83 in 10.0 mi South 18.4 mph 25.3 mph N/A   Overcast
3:32 AM 66.2 °F 62.6 °F 88% 29.82 in 10.0 mi South 17.3 mph 26.5 mph N/A   Overcast
3:58 AM 66.6 °F 62.8 °F 88% 29.82 in 10.0 mi South 17.3 mph 27.6 mph 0.01 in   Overcast
4:58 AM 66.7 °F 62.4 °F 86% 29.80 in 10.0 mi South 17.3 mph 28.8 mph N/A   Overcast
5:03 AM 66.2 °F 62.6 °F 88% 29.80 in 10.0 mi South 17.3 mph 26.5 mph N/A   Overcast
5:43 AM 66.2 °F 62.6 °F 88% 29.79 in 10.0 mi South 18.4 mph 24.2 mph N/A   Light Drizzle
5:58 AM 65.8 °F 63.9 °F 93% 29.79 in 10.0 mi South 17.3 mph 26.5 mph 0.00 in   Light Drizzle
6:07 AM 64.4 °F 64.4 °F 100% 29.80 in 10.0 mi South 17.3 mph 24.2 mph N/A   Overcast
6:17 AM 66.2 °F 64.4 °F 94% 29.81 in 9.0 mi South 16.1 mph 26.5 mph N/A Rain Light Rain
6:34 AM 64.4 °F 64.4 °F 100% 29.82 in 10.0 mi South 18.4 mph 26.5 mph N/A   Overcast
6:36 AM 64.4 °F 64.4 °F 100% 29.82 in 10.0 mi South 19.6 mph 26.5 mph N/A Rain Light Rain
6:54 AM 64.4 °F 64.4 °F 100% 29.84 in 10.0 mi South 13.8 mph 26.5 mph N/A   Overcast
6:55 AM 64.4 °F 64.4 °F 100% 29.84 in 10.0 mi South 15.0 mph 26.5 mph N/A Rain Light Rain
6:58 AM 64.2 °F 64.2 °F 100% 29.84 in 10.0 mi South 16.1 mph 26.5 mph 0.12 in Rain Light Rain
7:20 AM 64.4 °F 64.4 °F 100% 29.85 in 6.0 mi South 12.7 mph 18.4 mph N/A Rain Rain
7:30 AM 64.4 °F 64.4 °F 100% 29.86 in 2.5 mi SSW 12.7 mph - N/A Rain Heavy Rain
7:32 AM 64.4 °F 64.4 °F 100% 29.86 in 2.5 mi SSW 12.7 mph - N/A Rain Heavy Rain
7:43 AM 62.6 °F 62.6 °F 100% 29.84 in 3.0 mi South 9.2 mph - N/A Rain Rain
7:58 AM 63.3 °F 63.3 °F 100% 29.85 in 6.0 mi South 9.2 mph - 0.35 in Rain Rain
8:06 AM 62.6 °F 62.6 °F 100% 29.84 in 6.0 mi SSE 6.9 mph - N/A Rain Rain
8:15 AM 62.6 °F 62.6 °F 100% 29.85 in 5.0 mi SSE 9.2 mph - N/A Rain Rain
8:30 AM 62.6 °F 62.6 °F 100% 29.83 in 2.5 mi SSE 16.1 mph 21.9 mph N/A Rain Rain
8:33 AM 62.6 °F 62.6 °F 100% 29.83 in 1.8 mi SSE 12.7 mph 21.9 mph N/A Rain Heavy Rain
8:39 AM 62.6 °F 62.6 °F 100% 29.84 in 1.2 mi South 6.9 mph 21.9 mph N/A Rain Heavy Rain
8:49 AM 62.6 °F 62.6 °F 100% 29.83 in 1.5 mi NW 1.2 mph - N/A Rain Heavy Rain
8:51 AM 62.6 °F 62.6 °F 100% 29.83 in 1.2 mi Calm Calm - N/A Rain Light Rain
8:55 AM 62.6 °F 62.6 °F 100% 29.82 in 1.5 mi ESE 6.9 mph - N/A Rain Rain
8:58 AM 63.1 °F 63.1 °F 100% 29.81 in 1.8 mi East 6.9 mph - 0.50 in Rain Rain
8:59 AM 62.6 °F 62.6 °F 100% 29.80 in 2.0 mi East 8.1 mph - N/A Rain Light Rain
9:01 AM 62.6 °F 62.6 °F 100% 29.80 in 4.0 mi East 9.2 mph - N/A Rain Light Rain
9:04 AM 62.6 °F 62.6 °F 100% 29.79 in 8.0 mi ESE 10.4 mph - N/A   Light Drizzle
9:06 AM 62.6 °F 62.6 °F 100% 29.79 in 10.0 mi East 11.5 mph - N/A   Light Drizzle
9:11 AM 62.6 °F 62.6 °F 100% 29.77 in 10.0 mi ESE 15.0 mph - N/A   Light Drizzle
9:12 AM 62.6 °F 62.6 °F 100% 29.78 in 10.0 mi ESE 13.8 mph - N/A   Overcast
9:16 AM 62.6 °F 62.6 °F 100% 29.78 in 10.0 mi ESE 15.0 mph - N/A   Overcast
9:17 AM 62.6 °F 62.6 °F 100% 29.77 in 10.0 mi ESE 15.0 mph - N/A   Overcast
9:18 AM 62.6 °F 62.6 °F 100% 29.77 in 10.0 mi ESE 15.0 mph - N/A   Light Drizzle
9:19 AM 62.6 °F 62.6 °F 100% 29.77 in 10.0 mi ESE 15.0 mph - N/A   Light Drizzle
9:20 AM 62.6 °F 62.6 °F 100% 29.77 in 10.0 mi ESE 15.0 mph - N/A   Overcast
9:30 AM 62.6 °F 62.6 °F 100% 29.78 in 10.0 mi Variable 2.3 mph - N/A   Light Drizzle
9:31 AM 62.6 °F 62.6 °F 100% 29.78 in 10.0 mi East 6.9 mph - N/A   Light Drizzle
9:35 AM 62.6 °F 62.6 °F 100% 29.77 in 8.0 mi Variable 5.8 mph - N/A Rain Light Rain
9:40 AM 62.6 °F 62.6 °F 100% 29.80 in 2.0 mi West 9.2 mph - N/A Rain Light Rain
9:41 AM 62.6 °F 62.6 °F 100% 29.80 in 1.8 mi WNW 8.1 mph - N/A Rain Light Rain
9:44 AM 62.6 °F 62.6 °F 100% 29.79 in 1.2 mi NW 11.5 mph - N/A Rain Heavy Rain
9:49 AM 62.6 °F 62.6 °F 100% 29.80 in 1.5 mi NW 8.1 mph - N/A Rain Rain
9:50 AM 62.6 °F 62.6 °F 100% 29.80 in 2.0 mi NW 10.4 mph - N/A Rain Rain
9:54 AM 64.4 °F 64.4 °F 100% 29.81 in 1.8 mi West 5.8 mph - N/A Rain Heavy Rain
9:58 AM 63.5 °F 63.5 °F 100% 29.81 in 1.5 mi WSW 8.1 mph - 0.15 in Rain Heavy Rain
10:00 AM 64.4 °F 64.4 °F 100% 29.81 in 1.2 mi WSW 6.9 mph - N/A Rain Rain
10:03 AM 64.4 °F 64.4 °F 100% 29.80 in 1.5 mi SSW 4.6 mph - N/A Rain Rain
10:05 AM 64.4 °F 64.4 °F 100% 29.80 in 2.0 mi SSW 4.6 mph - N/A Rain Light Rain
10:07 AM 64.4 °F 64.4 °F 100% 29.80 in 3.0 mi South 3.5 mph - N/A Rain Light Rain
10:16 AM 64.4 °F 64.4 °F 100% 29.79 in 4.0 mi SE 2.3 mph - N/A Rain Light Rain
10:17 AM 64.4 °F 64.4 °F 100% 29.79 in 4.0 mi SSE 2.3 mph - N/A Rain Rain
10:23 AM 64.4 °F 64.4 °F 100% 29.79 in 4.0 mi SE 4.6 mph - N/A Rain Light Rain
10:32 AM 64.4 °F 64.4 °F 100% 29.79 in 3.0 mi SSE 4.6 mph - N/A Rain Rain
10:55 AM 64.4 °F 64.4 °F 100% 29.78 in 9.0 mi South 6.9 mph - N/A   Light Drizzle
10:58 AM 64.0 °F 64.0 °F 100% 29.77 in 8.0 mi South 5.8 mph - 0.11 in   Light Drizzle
10:59 AM 64.4 °F 64.4 °F 100% 29.77 in 9.0 mi South 5.8 mph - N/A   Light Drizzle
11:00 AM 64.4 °F 64.4 °F 100% 29.77 in 9.0 mi South 5.8 mph - N/A   Light Drizzle
11:25 AM 64.4 °F 64.4 °F 100% 29.75 in 8.0 mi South 13.8 mph 21.9 mph N/A Rain Light Rain
11:28 AM 64.4 °F 64.4 °F 100% 29.75 in 6.0 mi South 10.4 mph 21.9 mph N/A Rain Light Rain
11:29 AM 64.4 °F 64.4 °F 100% 29.75 in 6.0 mi South 11.5 mph 21.9 mph N/A Rain Light Rain
11:30 AM 64.4 °F 64.4 °F 100% 29.75 in 6.0 mi SSW 11.5 mph 21.9 mph N/A Rain Rain
11:35 AM 66.2 °F 66.2 °F 100% 29.74 in 7.0 mi South 13.8 mph 21.9 mph N/A Rain Light Rain
11:42 AM 66.2 °F 66.2 °F 100% 29.74 in 10.0 mi South 13.8 mph - N/A   Light Drizzle
11:53 AM 66.2 °F 66.2 °F 100% 29.72 in 10.0 mi South 12.7 mph - N/A   Overcast
11:58 AM 65.8 °F 65.8 °F 100% 29.72 in 10.0 mi South 12.7 mph - 0.04 in   Overcast
12:09 PM 66.2 °F 66.2 °F 100% 29.72 in 10.0 mi SSW 17.3 mph 24.2 mph N/A   Light Drizzle
12:21 PM 66.2 °F 66.2 °F 100% 29.71 in 10.0 mi South 16.1 mph - N/A   Overcast
12:27 PM 68.0 °F 68.0 °F 100% 29.71 in 10.0 mi South 16.1 mph - N/A   Light Drizzle
12:36 PM 68.0 °F 68.0 °F 100% 29.70 in 10.0 mi South 13.8 mph 26.5 mph N/A   Overcast
12:54 PM 68.0 °F 68.0 °F 100% 29.69 in 10.0 mi South 16.1 mph 25.3 mph N/A   Light Drizzle
12:58 PM 67.5 °F 67.5 °F 100% 29.69 in 10.0 mi SSW 17.3 mph 25.3 mph 0.00 in   Light Drizzle
1:04 PM 68.0 °F 68.0 °F 100% 29.68 in 10.0 mi South 15.0 mph 25.3 mph N/A   Overcast
1:19 PM 68.0 °F 68.0 °F 100% 29.68 in 10.0 mi SSW 20.7 mph 28.8 mph N/A   Light Drizzle
1:23 PM 68.0 °F 68.0 °F 100% 29.68 in 10.0 mi South 19.6 mph 28.8 mph N/A   Overcast
1:25 PM 68.0 °F 68.0 °F 100% 29.67 in 10.0 mi South 17.3 mph 28.8 mph N/A   Light Drizzle
1:39 PM 68.0 °F 68.0 °F 100% 29.67 in 10.0 mi South 16.1 mph 26.5 mph N/A   Overcast
1:47 PM 68.0 °F 68.0 °F 100% 29.68 in 10.0 mi SSW 16.1 mph 26.5 mph N/A   Light Drizzle
1:56 PM 68.0 °F 68.0 °F 100% 29.68 in 10.0 mi SSW 16.1 mph 25.3 mph N/A   Overcast
1:58 PM 68.2 °F 68.2 °F 100% 29.68 in 10.0 mi SSW 17.3 mph 25.3 mph 0.01 in   Overcast
2:20 PM 68.0 °F 68.0 °F 100% 29.67 in 10.0 mi South 18.4 mph 29.9 mph N/A   Light Drizzle
2:29 PM 68.0 °F 68.0 °F 100% 29.67 in 10.0 mi SSW 19.6 mph 25.3 mph N/A   Overcast
2:52 PM 69.8 °F 69.8 °F 100% 29.65 in 10.0 mi South 16.1 mph 31.1 mph N/A   Mostly Cloudy
2:58 PM 69.4 °F 69.4 °F 100% 29.65 in 10.0 mi South 20.7 mph 26.5 mph 0.00 in   Overcast
2:59 PM 69.8 °F 69.8 °F 100% 29.65 in 10.0 mi South 17.3 mph 26.5 mph N/A   Overcast
3:06 PM 69.8 °F 69.8 °F 100% 29.65 in 10.0 mi South 18.4 mph 28.8 mph N/A   Overcast
3:44 PM 69.8 °F 69.8 °F 100% 29.68 in 10.0 mi SSW 20.7 mph 27.6 mph N/A   Overcast
3:52 PM 69.8 °F 69.8 °F 100% 29.68 in 10.0 mi SSW 19.6 mph 27.6 mph N/A   Overcast
3:58 PM 70.3 °F 70.3 °F 100% 29.68 in 10.0 mi SSW 20.7 mph 26.5 mph N/A   Overcast
4:02 PM 69.8 °F 69.8 °F 100% 29.68 in 10.0 mi SSW 21.9 mph - N/A   Mostly Cloudy
4:09 PM 69.8 °F 69.8 °F 100% 29.68 in 10.0 mi SSW 19.6 mph 28.8 mph N/A   Scattered Clouds
4:58 PM 70.3 °F 70.3 °F 100% 29.69 in 10.0 mi SSW 15.0 mph 24.2 mph N/A   Clear
5:03 PM 69.8 °F 69.8 °F 100% 29.70 in 10.0 mi SSW 16.1 mph 21.9 mph N/A   Light Drizzle
5:09 PM 69.8 °F 69.8 °F 100% 29.70 in 10.0 mi SSW 9.2 mph 21.9 mph N/A   Scattered Clouds
5:10 PM 69.8 °F 69.8 °F 100% 29.70 in 10.0 mi SSW 9.2 mph 21.9 mph N/A   Light Drizzle
5:14 PM 69.8 °F 69.8 °F 100% 29.70 in 10.0 mi SW 15.0 mph 20.7 mph N/A   Light Drizzle
5:20 PM 69.8 °F 69.8 °F 100% 29.70 in 9.0 mi SW 11.5 mph 20.7 mph N/A   Light Drizzle
5:24 PM 69.8 °F 69.8 °F 100% 29.72 in 8.0 mi West 20.7 mph 27.6 mph N/A Rain Light Rain
5:26 PM 69.8 °F 69.8 °F 100% 29.75 in 1.5 mi WNW 33.4 mph 48.3 mph N/A Rain Rain
5:27 PM 69.8 °F 69.8 °F 100% 29.75 in 1.0 mi WNW 23.0 mph 48.3 mph N/A Rain Light Rain
5:28 PM 69.8 °F 69.8 °F 100% 29.75 in 1.0 mi WNW 17.3 mph 48.3 mph N/A Rain Light Rain
5:29 PM 68.0 °F 68.0 °F 100% 29.74 in 0.8 mi NW 10.4 mph 48.3 mph N/A Rain Rain
5:32 PM 66.2 °F 66.2 °F 100% 29.73 in 0.5 mi WSW 15.0 mph 48.3 mph N/A Fog , Rain Heavy Rain
5:35 PM 64.4 °F 64.4 °F 100% 29.74 in 0.5 mi SW 15.0 mph 48.3 mph N/A Fog , Rain Heavy Rain
5:36 PM 64.4 °F 64.4 °F 100% 29.74 in 0.8 mi WSW 16.1 mph 28.8 mph N/A Rain Heavy Rain
5:38 PM 64.4 °F 64.4 °F 100% 29.75 in 1.2 mi WSW 17.3 mph 20.7 mph N/A Rain Heavy Rain
5:39 PM 64.4 °F 64.4 °F 100% 29.74 in 2.0 mi SW 16.1 mph 20.7 mph N/A Rain Heavy Rain
5:40 PM 64.4 °F 64.4 °F 100% 29.74 in 2.5 mi WSW 17.3 mph 20.7 mph N/A Rain Heavy Rain
5:41 PM 64.4 °F 64.4 °F 100% 29.73 in 3.0 mi WSW 18.4 mph 20.7 mph N/A Rain Rain
5:43 PM 64.4 °F 64.4 °F 100% 29.73 in 5.0 mi WSW 19.6 mph 28.8 mph N/A Rain Rain
5:48 PM 64.4 °F 64.4 °F 100% 29.72 in 7.0 mi WSW 20.7 mph 28.8 mph N/A Rain Rain
5:55 PM 64.4 °F 64.4 °F 100% 29.72 in 9.0 mi WSW 20.7 mph 27.6 mph N/A Rain Light Rain
5:58 PM 64.4 °F 64.4 °F 100% 29.72 in 10.0 mi WSW 19.6 mph 27.6 mph 0.41 in   Drizzle
6:04 PM 64.4 °F 64.4 °F 100% 29.73 in 10.0 mi WSW 17.3 mph - N/A   Mostly Cloudy
6:58 PM 63.1 °F 63.1 °F 100% 29.77 in 10.0 mi WSW 11.5 mph - 0.00 in   Partly Cloudy
7:58 PM 63.1 °F 63.1 °F 100% 29.81 in 10.0 mi West 8.1 mph - N/A   Clear
8:58 PM 61.5 °F 61.3 °F 99% 29.86 in 10.0 mi NW 5.8 mph - N/A   Clear
9:58 PM 60.6 °F 48.4 °F 64% 29.90 in 10.0 mi WNW 4.6 mph - N/A   Clear
10:58 PM 54.1 °F 54.1 °F 100% 29.92 in 10.0 mi WSW 4.6 mph - N/A   Clear
11:58 PM 57.4 °F 35.8 °F 44% 29.95 in 10.0 mi NW 6.9 mph - N/A   Clear